"2016-02-18 00:00:00",1383771,2.073,9.57,4.968,0.378,12.06,104.583,11.01,12.01,27.85,0,110.5,13.17,11.80,331.6
"2016-02-18 00:00:30",1383772,2.617,0.201,5.613,0.498,12.2,104.5698,10.97,12.01,27.69,0,110.5,13.17,11.76,322.2
"2016-02-18 00:01:00",1383773,3.653,355.4,2.666,0.369,12.59,104.5667,10.96,12,27.25,0,110.4,13.17,11.75,317.4
"2016-02-18 00:01:30",1383774,4.233,354.8,3.215,0.309,13.06,104.5492,10.92,11.98,27.1,0,110.5,13.17,11.71,316.8
"2016-02-18 00:02:00",1383775,4.748,4.975,12.44,1.444,15.96,104.5337,10.88,12.15,27.52,0,110.4,13.12,11.67,327.0
"2016-02-18 00:02:30",1383776,3.859,359.5,17.31,1.597,17.01,104.5236,10.85,12.13,27.9,0,110.5,13.12,11.64,321.5
"2016-02-18 00:03:00",1383777,3.86,19.83,21.92,1.431,17.12,104.5091,10.82,12.19,28.54,0,110.4,13.12,11.61,341.8
"2016-02-18 00:03:30",1383778,3.283,351.5,9.59,1.043,13.74,104.5067,10.81,11.97,28.5,0,110.4,13.12,11.60,313.5
"2016-02-18 00:04:00",1383779,2.671,354.6,3.345,0.597,12.91,104.4943,10.78,11.87,27.89,0,110.4,13.17,11.57,316.6
"2016-02-18 00:04:30",1383780,2.407,355.2,6.705,0.579,12.9,104.4755,10.73,11.84,28.05,0,110.4,13.17,11.52,317.2
"2016-02-18 00:05:00",1383781,2.016,353.1,5.229,0.383,13.2,104.477,10.73,11.82,27.89,0,110.4,13.17,11.52,315.1
"2016-02-18 00:05:30",1383782,1.234,2.804,12.58,0.609,13.63,104.4728,10.72,11.8,28.23,0,110.4,13.17,11.51,324.8
"2016-02-18 00:06:00",1383783,2.128,3.697,8.88,1.424,15.08,104.4548,10.68,11.86,28.21,0,110.4,13.13,11.47,325.7
"2016-02-18 00:06:30",1383784,1.823,7.639,11.13,1.482,15.44,104.4493,10.66,11.92,28.04,0,110.4,13.13,11.45,329.6
"2016-02-18 00:07:00",1383785,1.988,2.71,10.5,0.818,14.55,104.4485,10.66,11.79,28.06,0,110.4,13.13,11.45,324.7
"2016-02-18 00:07:30",1383786,2.142,2.474,9.19,1.025,14.43,104.4433,10.65,11.81,28.1,0,110.4,13.13,11.44,324.5
"2016-02-18 00:08:00",1383787,2.415,14.66,15.3,1.369,15.98,104.4315,10.62,11.92,28.46,0,110.4,13.13,11.41,336.7
"2016-02-18 00:08:30",1383788,3.075,4.038,18.12,1.359,16.37,104.4214,10.59,11.87,29.12,0,110.4,13.13,11.38,326.0
"2016-02-18 00:09:00",1383789,1.13,13.23,16.6,0.994,14.05,104.4229,10.6,11.74,29.35,0,110.4,13.13,11.38,335.2
"2016-02-18 00:09:30",1383790,0.708,20.91,13.09,0.4,13.61,104.4247,10.6,11.66,29.61,0,110.4,13.17,11.39,342.9
"2016-02-18 00:10:00",1383791,0.92,15.99,16.96,0.369,13.74,104.4203,10.59,11.64,30.06,0,110.4,13.17,11.38,338.0
"2016-02-18 00:10:30",1383792,0.537,4.159,18.16,0.239,13.95,104.415,10.58,11.64,30.31,0,110.4,13.17,11.36,326.2
"2016-02-18 00:11:00",1383793,1.009,357,16.71,0.626,13.96,104.4083,10.56,11.62,30.42,0,110.4,13.17,11.35,319.0
"2016-02-18 00:11:30",1383794,0.55,11.39,14.57,0.274,14.17,104.3993,10.54,11.6,30.08,0,110.4,13.18,11.32,333.4
"2016-02-18 00:12:00",1383795,2.313,6.548,9.64,1.83,15.57,104.399,10.53,11.69,30.28,0,110.4,13.13,11.32,328.5
"2016-02-18 00:12:30",1383796,2.011,9.35,12.87,1.518,16,104.399,10.53,11.77,30.19,0,110.4,13.14,11.32,331.4
"2016-02-18 00:13:00",1383797,1.425,358.2,9.66,0.774,13.97,104.399,10.53,11.58,30.35,0,110.4,13.18,11.32,320.2
"2016-02-18 00:13:30",1383798,2.579,357.5,5.573,1.408,15.08,104.3909,10.51,11.68,29.96,0,110.4,13.14,11.30,319.5
"2016-02-18 00:14:00",1383799,2.429,11.82,9.97,1.638,16.22,104.3807,10.49,11.69,30.17,0,110.4,13.14,11.28,333.8
"2016-02-18 00:14:30",1383800,1.954,355.5,8.96,0.732,13.35,104.3697,10.46,11.55,29.95,0,110.4,13.19,11.25,317.5
"2016-02-18 00:15:00",1383801,3.742,353,6.559,1.307,14.51,104.3655,10.45,11.64,29.58,0,110.4,13.14,11.24,315.0
"2016-02-18 00:15:30",1383802,3.842,354.1,7.336,1.341,15.38,104.3655,10.45,11.71,29.42,0,110.4,13.14,11.24,316.1
"2016-02-18 00:16:00",1383803,2.964,347.1,3.584,0.228,13.55,104.3655,10.45,11.52,29.12,0,110.4,13.19,11.24,309.1
"2016-02-18 00:16:30",1383804,3.43,349.3,5.094,1.094,15.16,104.3655,10.45,11.61,29.16,0,110.4,13.14,11.24,311.3
"2016-02-18 00:17:00",1383805,3.638,350.3,6.151,1.282,15.38,104.3652,10.45,11.64,29.29,0,110.4,13.14,11.24,312.3
"2016-02-18 00:17:30",1383806,2.828,350.8,4.406,0.468,14.09,104.3596,10.43,11.52,29.42,0,110.4,13.19,11.22,312.8
"2016-02-18 00:18:00",1383807,3.901,352.4,7.382,1.571,15.01,104.3567,10.43,11.59,29.62,0,110.4,13.15,11.21,314.4
"2016-02-18 00:18:30",1383808,5.146,351.5,8.39,1.469,15.77,104.3519,10.41,11.6,29.24,0,110.3,13.14,11.20,313.5
"2016-02-18 00:19:00",1383809,3.888,346.3,2.904,0.216,13.47,104.3497,10.41,11.47,29.02,0,110.3,13.19,11.20,308.3
"2016-02-18 00:19:30",1383810,3.368,351.2,2.538,0.386,13.52,104.3502,10.41,11.46,29.15,0,110.3,13.19,11.20,313.2
"2016-02-18 00:20:00",1383811,4.402,351.1,6.007,1.313,14.89,104.3531,10.42,11.57,29.1,0,110.3,13.15,11.21,313.1
"2016-02-18 00:20:30",1383812,5.317,355.8,7.012,1.469,17.03,104.3557,10.42,11.62,29.02,0,110.3,13.15,11.21,317.8
"2016-02-18 00:21:00",1383813,4.754,350.4,6.934,1.346,15.58,104.3523,10.41,11.55,28.96,0,110.3,13.15,11.20,312.4
"2016-02-18 00:21:30",1383814,3.944,347.4,6.057,1.025,14.67,104.3475,10.4,11.54,28.96,0,110.3,13.15,11.19,309.4
"2016-02-18 00:22:00",1383815,4.175,350.9,7.931,1.367,15.06,104.3476,10.4,11.5,28.94,0,110.3,13.15,11.19,312.9
"2016-02-18 00:22:30",1383816,3.607,358.1,7.209,1.341,15.59,104.3563,10.43,11.62,29.5,0,110.3,13.15,11.21,320.1
"2016-02-18 00:23:00",1383817,3.871,354.5,6.258,1.403,14.97,104.3566,10.43,11.49,29.77,0,110.3,13.15,11.21,316.5
"2016-02-18 00:23:30",1383818,3.184,350.2,3.821,0.311,13.6,104.3579,10.43,11.45,29.34,0,110.3,13.2,11.22,312.2
"2016-02-18 00:24:00",1383819,2.504,358.9,8.41,0.938,13.79,104.3656,10.45,11.44,29.4,0,110.3,13.2,11.24,320.9
"2016-02-18 00:24:30",1383820,2.546,353.6,5.182,0.518,14.13,104.3722,10.47,11.46,29.68,0,110.3,13.19,11.25,315.6
"2016-02-18 00:25:00",1383821,3.753,3.822,7.924,1.538,16.95,104.3728,10.47,11.65,29.99,0,110.3,13.15,11.26,325.8
"2016-02-18 00:25:30",1383822,4.563,2.649,7.94,1.498,17.51,104.3757,10.48,11.71,29.63,0,110.3,13.15,11.26,324.6
"2016-02-18 00:26:00",1383823,3.125,357.1,6.075,1.189,14.71,104.3858,10.5,11.46,29.14,0,110.3,13.15,11.29,319.1
"2016-02-18 00:26:30",1383824,2.851,356.4,6.162,0.974,14.26,104.3895,10.51,11.48,29.53,0,110.3,13.14,11.30,318.4
"2016-02-18 00:27:00",1383825,4.045,356.7,8.29,1.135,15.62,104.3908,10.51,11.66,29.35,0,110.3,13.14,11.30,318.7
"2016-02-18 00:27:30",1383826,3.997,354.6,8.05,1.139,15,104.3965,10.53,11.51,29.18,0,110.3,13.14,11.32,316.6
"2016-02-18 00:28:00",1383827,2.936,352.4,2.875,0.573,13.88,104.4,10.54,11.49,29.52,0,110.3,13.19,11.33,314.4
"2016-02-18 00:28:30",1383828,3.722,350.8,1.448,0.334,13.97,104.4008,10.54,11.5,29.15,0,110.3,13.19,11.33,312.8
"2016-02-18 00:29:00",1383829,3.812,352.2,5.363,1.032,15.12,104.4008,10.54,11.61,29.31,0,110.3,13.15,11.33,314.2
"2016-02-18 00:29:30",1383830,4.821,356.4,6.787,1.456,16.59,104.4008,10.54,11.65,29.23,0,110.3,13.15,11.33,318.4
"2016-02-18 00:30:00",1383831,4.056,355.4,7.174,1.434,15.78,104.4008,10.54,11.66,29.49,0,110.3,13.15,11.33,317.4
"2016-02-18 00:30:30",1383832,3.932,356,7.149,1.342,15.13,104.4008,10.54,11.63,29.46,0,110.3,13.15,11.33,318.0
"2016-02-18 00:31:00",1383833,4.505,352.3,6.911,1.304,15.54,104.4019,10.54,11.67,29.67,0,110.3,13.15,11.33,314.3
"2016-02-18 00:31:30",1383834,4.409,353.3,7.25,1.396,15.85,104.4079,10.56,11.74,29.74,0,110.3,13.15,11.35,315.3
"2016-02-18 00:32:00",1383835,3.222,351.6,5.654,0.931,14.54,104.4163,10.58,11.56,29.89,0,110.3,13.15,11.37,313.6
"2016-02-18 00:32:30",1383836,2.74,351.7,3.458,0.468,14.06,104.4259,10.6,11.55,30.48,0,110.3,13.2,11.39,313.7
"2016-02-18 00:33:00",1383837,3.343,346.6,2.591,0.245,14.18,104.4287,10.61,11.56,30.18,0,110.3,13.2,11.40,308.6
"2016-02-18 00:33:30",1383838,4.607,355.9,7.734,1.5,17,104.4321,10.62,11.79,30.05,0,110.3,13.16,11.41,317.9
"2016-02-18 00:34:00",1383839,3.702,349.5,4.101,0.666,14.52,104.4347,10.63,11.63,29.82,0,110.3,13.16,11.42,311.5
"2016-02-18 00:34:30",1383840,3.285,345.5,3.368,0.369,14.05,104.4347,10.63,11.59,29.57,0,110.3,13.2,11.42,307.5
"2016-02-18 00:35:00",1383841,4.124,353.6,7.778,1.489,16.16,104.4347,10.63,11.81,30.17,0,110.3,13.16,11.42,315.6
"2016-02-18 00:35:30",1383842,4.839,356.4,7.487,1.413,16.91,104.4347,10.63,11.72,30.2,0,110.3,13.16,11.42,318.4
"2016-02-18 00:36:00",1383843,3.374,354.7,8.5,1.373,16.11,104.4347,10.63,11.81,30.66,0,110.3,13.16,11.42,316.7
"2016-02-18 00:36:30",1383844,2.968,349.1,4.051,0.663,14.52,104.4347,10.63,11.65,30.71,0,110.3,13.16,11.42,311.1
"2016-02-18 00:37:00",1383845,2.764,348.5,2.786,0.195,14.08,104.4347,10.63,11.63,30.69,0,110.3,13.2,11.42,310.5
"2016-02-18 00:37:30",1383846,3.079,351,5.216,0.765,14.93,104.4349,10.63,11.74,30.45,0,110.3,13.16,11.42,313.0
"2016-02-18 00:38:00",1383847,3.885,356.7,8.67,1.451,16.44,104.4369,10.63,11.77,30.71,0,110.3,13.16,11.42,318.7
"2016-02-18 00:38:30",1383848,2.554,353.1,5.2,0.597,14.15,104.4403,10.64,11.7,30.21,0,110.3,13.21,11.43,315.1
"2016-02-18 00:39:00",1383849,2.114,354.2,4.475,0.588,13.91,104.4485,10.66,11.66,30.01,0,110.3,13.21,11.45,316.2
"2016-02-18 00:39:30",1383850,1.552,358.2,7.456,0.488,14.02,104.4562,10.68,11.68,30.7,0,110.3,13.21,11.47,320.2
"2016-02-18 00:40:00",1383851,3.108,349.2,8.94,1.416,15.02,104.4613,10.69,11.7,30.6,0,110.3,13.16,11.48,311.2
"2016-02-18 00:40:30",1383852,4.559,359.3,8.45,1.382,17.65,104.4633,10.7,11.94,30.14,0,110.3,13.17,11.49,321.3
"2016-02-18 00:41:00",1383853,4.031,357.4,8.71,1.328,16.99,104.4644,10.7,11.95,30.07,0,110.3,13.16,11.49,319.4
"2016-02-18 00:41:30",1383854,3.327,348,5.391,0.751,14.81,104.469,10.71,11.72,29.16,0,110.3,13.17,11.50,310.0
"2016-02-18 00:42:00",1383855,3.626,355,8.11,1.093,15.78,104.4748,10.73,11.77,29.66,0,110.3,13.15,11.52,317.0
"2016-02-18 00:42:30",1383856,3.086,359.6,8.27,1.352,16.07,104.4756,10.73,11.89,30.12,0,110.3,13.15,11.52,321.6
"2016-02-18 00:43:00",1383857,2.745,0.379,5.97,1.49,15.3,104.4771,10.73,11.76,29.35,0,110.3,13.15,11.52,322.4
"2016-02-18 00:43:30",1383858,2.885,350,3.126,0.381,13.95,104.4776,10.74,11.73,29.29,0,110.3,13.2,11.53,312.0
"2016-02-18 00:44:00",1383859,2.495,352.2,3.297,0.501,13.99,104.4794,10.74,11.73,29.09,0,110.3,13.2,11.53,314.2
"2016-02-18 00:44:30",1383860,2.78,349.8,5.868,0.396,14.24,104.4803,10.74,11.73,28.89,0,110.3,13.2,11.53,311.8
"2016-02-18 00:45:00",1383861,3.471,348,6.485,0.911,15.52,104.483,10.75,11.85,29.08,0,110.3,13.15,11.54,310.0
"2016-02-18 00:45:30",1383862,4.317,352,6.736,1.384,17.22,104.4864,10.76,11.92,28.28,0,110.3,13.15,11.55,314.0
"2016-02-18 00:46:00",1383863,4.916,352.5,6.933,1.469,17.21,104.4939,10.78,11.98,27.99,0,110.3,13.16,11.57,314.5
"2016-02-18 00:46:30",1383864,4.475,352.3,7.694,1.474,16.83,104.5028,10.8,11.94,27.53,0,110.3,13.16,11.59,314.3
"2016-02-18 00:47:00",1383865,4.862,353.4,7.728,1.416,16.55,104.5087,10.82,11.88,27.24,0,110.3,13.16,11.61,315.4
"2016-02-18 00:47:30",1383866,3.663,348,3.098,0.25,14.39,104.5136,10.83,11.85,26.88,0,110.3,13.21,11.62,310.0
"2016-02-18 00:48:00",1383867,3.64,345.1,1.252,0.091,13.96,104.5193,10.84,11.78,26.92,0,110.3,13.21,11.63,307.1
"2016-02-18 00:48:30",1383868,3.597,345.1,1.585,0.099,14.09,104.5221,10.85,11.79,26.85,0,110.3,13.21,11.64,307.1
"2016-02-18 00:49:00",1383869,3.669,342.9,0.931,0.075,14.32,104.5247,10.86,11.81,26.95,0,110.3,13.21,11.65,304.9
"2016-02-18 00:49:30",1383870,4.392,347.9,6.731,1.312,15.98,104.5292,10.87,11.91,27.09,0,110.3,13.17,11.66,309.9
"2016-02-18 00:50:00",1383871,5.181,353.7,6.722,1.509,17.56,104.5298,10.87,12.03,27.19,0,110.3,13.17,11.66,315.7
"2016-02-18 00:50:30",1383872,4.053,345.5,3.009,0.569,14.98,104.5324,10.88,11.8,26.52,0,110.3,13.17,11.67,307.5
"2016-02-18 00:51:00",1383873,5.63,354.7,7.416,1.41,17.71,104.5307,10.87,12.03,26.38,0,110.3,13.17,11.66,316.7
"2016-02-18 00:51:30",1383874,5.71,355.3,7.242,1.383,17.66,104.5304,10.87,12.09,26.29,0,110.3,13.17,11.66,317.3
"2016-02-18 00:52:00",1383875,4.044,347,0.521,0.054,14.19,104.5348,10.88,11.83,25.87,0,110.3,13.21,11.67,309.0
"2016-02-18 00:52:30",1383876,3.884,346.7,0.978,0.083,14.06,104.5357,10.88,11.83,25.76,0,110.3,13.22,11.67,308.7
"2016-02-18 00:53:00",1383877,3.862,344.9,0.549,0.042,14.32,104.5369,10.89,11.84,25.87,0,110.3,13.22,11.68,306.9
"2016-02-18 00:53:30",1383878,3.969,345,0.604,0.059,14.52,104.5372,10.89,11.86,26.11,0,110.3,13.22,11.68,307.0
"2016-02-18 00:54:00",1383879,4.902,350.3,6.973,1.27,16.36,104.54,10.9,11.99,26.07,0,110.3,13.17,11.69,312.3
"2016-02-18 00:54:30",1383880,5.039,350.1,6.402,1.277,16.38,104.5521,10.93,12.01,25.86,0,110.3,13.17,11.72,312.1
"2016-02-18 00:55:00",1383881,5.29,352.9,7.384,1.348,17.04,104.5572,10.94,12.08,25.84,0,110.3,13.17,11.73,314.9
"2016-02-18 00:55:30",1383882,4.87,350.3,6.792,1.253,15.97,104.5643,10.96,12.01,25.87,0,110.3,13.17,11.75,312.3
"2016-02-18 00:56:00",1383883,5.675,352,7.624,1.411,17.24,104.5668,10.96,12.08,25.69,0,110.3,13.17,11.75,314.0
"2016-02-18 00:56:30",1383884,4.773,346.3,6.232,1.184,15.54,104.571,10.97,12.02,25.41,0,110.3,13.17,11.76,308.3
"2016-02-18 00:57:00",1383885,4.193,341.4,0.768,0.07,14.27,104.5716,10.98,11.93,25.25,0,110.3,13.22,11.77,303.4
"2016-02-18 00:57:30",1383886,4.232,342.2,0.641,0.05,14.56,104.5716,10.98,11.93,25.14,0,110.3,13.22,11.77,304.2
"2016-02-18 00:58:00",1383887,4.293,341.1,0.481,0.529,14.78,104.5716,10.98,11.94,25.35,0,110.3,13.17,11.77,303.1
"2016-02-18 00:58:30",1383888,5.086,345.8,7.23,1.379,17.12,104.5713,10.98,12.13,25.68,0,110.3,13.17,11.77,307.8
"2016-02-18 00:59:00",1383889,5.476,347.5,7.463,1.452,17.67,104.5722,10.98,12.14,25.85,0,110.3,13.17,11.77,309.5
"2016-02-18 00:59:30",1383890,5.232,347.1,7.448,1.407,16.76,104.5761,10.99,12.05,25.78,0,110.3,13.16,11.78,309.1
"2016-02-18 01:00:00",1383891,4.19,341.3,0.636,0.062,14.53,104.5832,11.01,11.97,25.61,0,110.3,13.21,11.80,303.3
"2016-02-18 01:00:30",1383892,4.612,343.2,4.935,0.964,15.13,104.5908,11.03,12.01,25.55,0,110.3,13.16,11.82,305.2
"2016-02-18 01:01:00",1383893,5.287,345.3,6.825,1.365,16.4,104.5967,11.04,12.08,25.7,0,110.3,13.16,11.83,307.3
"2016-02-18 01:01:30",1383894,4.988,343.2,7.087,1.276,16.18,104.6018,11.05,12.11,25.78,0,110.3,13.16,11.84,305.2
"2016-02-18 01:02:00",1383895,4.115,338.1,0.725,0.053,14.96,104.6055,11.06,12.03,26.11,0,110.3,13.21,11.85,300.1
"2016-02-18 01:02:30",1383896,4.863,343.6,6.37,1.264,16.55,104.6055,11.06,12.1,26.36,0,110.3,13.16,11.85,305.6
"2016-02-18 01:03:00",1383897,5.236,343.4,7.414,1.384,17.25,104.6055,11.06,12.2,26.44,0,110.3,13.16,11.85,305.4
"2016-02-18 01:03:30",1383898,5.477,345.3,7.442,1.377,17.88,104.608,11.07,12.27,26.74,0,110.3,13.17,11.86,307.3
"2016-02-18 01:04:00",1383899,4.634,342,5.847,1.18,15.77,104.6151,11.09,12.09,26.69,0,110.3,13.17,11.88,304.0
"2016-02-18 01:04:30",1383900,3.899,340.3,0.862,0.101,14.29,104.6176,11.09,12.07,26.45,0,110.3,13.22,11.88,302.3
"2016-02-18 01:05:00",1383901,3.806,342.6,0.857,0.052,14.32,104.6179,11.09,12.07,26.48,0,110.3,13.22,11.89,304.6
"2016-02-18 01:05:30",1383902,3.75,344.7,1.145,0.084,14.53,104.6255,11.11,12.08,26.08,0,110.3,13.22,11.90,306.7
"2016-02-18 01:06:00",1383903,4.689,350.8,6.662,1.24,16.39,104.6306,11.13,12.26,25.31,0,110.3,13.17,11.92,312.8
"2016-02-18 01:06:30",1383904,4.523,350.7,6.422,1.248,16.07,104.6348,11.14,12.19,24.53,0,110.3,13.17,11.93,312.7
"2016-02-18 01:07:00",1383905,4.488,351.1,6.931,1.322,16.87,104.6391,11.15,12.22,24.75,0,110.3,13.17,11.94,313.1
"2016-02-18 01:07:30",1383906,5.074,352.2,7.285,1.436,17.73,104.6394,11.15,12.25,25.73,0,110.3,13.17,11.94,314.2
"2016-02-18 01:08:00",1383907,4.314,348.5,6.397,1.241,16.47,104.6394,11.15,12.25,26.2,0,110.3,13.17,11.94,310.5
"2016-02-18 01:08:30",1383908,4.016,346.4,6.029,0.966,15.47,104.6394,11.15,12.19,26.37,0,110.3,13.17,11.94,308.4
"2016-02-18 01:09:00",1383909,3.819,344.4,0.81,0.103,14.23,104.6399,11.15,12.13,26.42,0,110.3,13.22,11.94,306.4
"2016-02-18 01:09:30",1383910,3.913,343.4,0.927,0.065,14.39,104.6447,11.16,12.15,26.61,0,110.3,13.22,11.95,305.4
"2016-02-18 01:10:00",1383911,3.821,343,0.619,0.046,14.6,104.6571,11.19,12.16,26.49,0,110.3,13.22,11.99,305.0
"2016-02-18 01:10:30",1383912,3.928,341.4,0.97,0.082,14.95,104.6642,11.21,12.16,26.49,0,110.3,13.22,12.00,303.4
"2016-02-18 01:11:00",1383913,4.102,341.4,3.749,0.879,15.57,104.6695,11.23,12.18,26.64,0,110.3,13.17,12.02,303.4
"2016-02-18 01:11:30",1383914,5.234,345.6,6.662,1.393,18.87,104.6732,11.24,12.44,27.23,0,110.3,13.17,12.03,307.6
"2016-02-18 01:12:00",1383915,4.641,344.4,7.493,1.403,18.04,104.6732,11.24,12.46,28.12,0,110.3,13.17,12.03,306.4
"2016-02-18 01:12:30",1383916,4.726,347.1,7.317,1.486,17.77,104.6732,11.24,12.4,28.53,0,110.3,13.17,12.03,309.1
"2016-02-18 01:13:00",1383917,3.672,340.7,8.58,1.079,15.8,104.6743,11.24,12.31,28.04,0,110.3,13.17,12.03,302.7
"2016-02-18 01:13:30",1383918,3.088,340.1,1.773,0.153,14.48,104.6876,11.27,12.24,28.49,0,110.3,13.22,12.06,302.1
"2016-02-18 01:14:00",1383919,3.477,339.4,2.991,0.251,14.47,104.6916,11.28,12.24,28.52,0,110.3,13.22,12.07,301.4
"2016-02-18 01:14:30",1383920,3.563,340.8,2.448,0.166,14.69,104.6992,11.3,12.27,28.4,0,110.3,13.22,12.09,302.8
"2016-02-18 01:15:00",1383921,3.488,341,2.794,0.114,14.93,104.7057,11.32,12.27,28.67,0,110.3,13.22,12.11,303.0
"2016-02-18 01:15:30",1383922,3.631,339.8,1.657,0.115,15.19,104.7071,11.32,12.28,28.3,0,110.3,13.22,12.11,301.8
"2016-02-18 01:16:00",1383923,3.582,339,2.012,0.196,15.51,104.7071,11.32,12.28,28.06,0,110.3,13.22,12.11,301.0
"2016-02-18 01:16:30",1383924,4.233,346.5,8.02,1.44,17.86,104.7071,11.32,12.52,28.26,0,110.3,13.17,12.11,308.5
"2016-02-18 01:17:00",1383925,5.811,0.564,7.704,1.298,18.91,104.7071,11.32,12.58,27.59,0,110.3,13.17,12.11,322.6
"2016-02-18 01:17:30",1383926,3.588,5.096,7.467,1.57,16.84,104.7071,11.32,12.46,22.97,0,110.3,13.17,12.11,327.1
"2016-02-18 01:18:00",1383927,2.697,359.4,5.593,0.864,14.55,104.7074,11.32,12.37,20.78,0,110.3,13.17,12.12,321.4
"2016-02-18 01:18:30",1383928,3.621,352.3,1.837,0.366,13.69,104.7133,11.34,12.31,20.64,0,110.3,13.21,12.13,314.3
"2016-02-18 01:19:00",1383929,3.652,348.8,1.452,0.192,14.42,104.7243,11.37,12.34,22.55,0,110.3,13.21,12.16,310.8
"2016-02-18 01:19:30",1383930,3.592,346.1,1.124,0.103,14.86,104.7328,11.39,12.34,24.69,0,110.3,13.21,12.18,308.1
"2016-02-18 01:20:00",1383931,3.374,345.9,0.847,0.053,15.3,104.7395,11.41,12.36,25.61,0,110.3,13.22,12.20,307.9
"2016-02-18 01:20:30",1383932,3.535,348.8,0.881,0.07,15.36,104.7407,11.41,12.36,25.92,0,110.3,13.22,12.20,310.8
"2016-02-18 01:21:00",1383933,4.106,355.7,7.297,1.306,17.19,104.7409,11.41,12.5,26.03,0,110.3,13.17,12.20,317.7
"2016-02-18 01:21:30",1383934,3.709,7.258,9.67,1.518,17.88,104.7409,11.41,12.54,24.84,0,110.3,13.18,12.20,329.3
"2016-02-18 01:22:00",1383935,2.418,15.07,10.27,1.4,16.45,104.7409,11.41,12.54,21.8,0,110.3,13.18,12.20,337.1
"2016-02-18 01:22:30",1383936,3.406,19.61,7.542,1.406,15.64,104.7409,11.41,12.59,24.34,0,110.3,13.18,12.20,341.6
"2016-02-18 01:23:00",1383937,3.986,10.39,7.361,1.24,13.91,104.7409,11.41,12.48,25.16,0,110.3,13.18,12.20,332.4
"2016-02-18 01:23:30",1383938,3.593,353.8,1.421,0.167,13.9,104.7409,11.41,12.38,21.46,0,110.3,13.22,12.20,315.8
"2016-02-18 01:24:00",1383939,3.212,342.9,3.465,0.199,14.64,104.739,11.4,12.39,22.4,0,110.3,13.22,12.20,304.9
"2016-02-18 01:24:30",1383940,3.018,341.6,0.971,0.062,14.86,104.737,11.4,12.38,24.81,0,110.3,13.22,12.19,303.6
"2016-02-18 01:25:00",1383941,3.325,345.8,0.711,0.06,14.68,104.7359,11.4,12.38,24.05,0,110.3,13.22,12.19,307.8
"2016-02-18 01:25:30",1383942,4.182,350,7.278,1.263,16.19,104.7294,11.38,12.41,23.02,0,110.3,13.18,12.17,312.0
"2016-02-18 01:26:00",1383943,4.974,357,7.83,1.445,18.27,104.724,11.37,12.64,22.83,0,110.3,13.18,12.16,319.0
"2016-02-18 01:26:30",1383944,4.21,356.1,7.169,1.336,16.8,104.7192,11.35,12.53,22.22,0,110.3,13.18,12.15,318.1
"2016-02-18 01:27:00",1383945,2.879,352.3,1.105,0.123,14.3,104.7113,11.33,12.4,21.84,0,110.3,13.22,12.13,314.3
"2016-02-18 01:27:30",1383946,3.501,355.9,6.766,1.114,15.72,104.7082,11.33,12.46,22.87,0,110.3,13.18,12.12,317.9
"2016-02-18 01:28:00",1383947,3.246,356.6,6.371,1.291,16.16,104.7085,11.33,12.52,25.14,0,110.3,13.18,12.12,318.6
"2016-02-18 01:28:30",1383948,2.566,351.4,0.966,0.121,14.79,104.7079,11.32,12.36,25.61,0,110.3,13.22,12.12,313.4
"2016-02-18 01:29:00",1383949,2.538,350.3,1.116,0.181,14.88,104.7076,11.32,12.36,25.78,0,110.3,13.22,12.12,312.3
"2016-02-18 01:29:30",1383950,2.39,351.1,1.891,0.215,15.04,104.7074,11.32,12.37,25.8,0,110.3,13.22,12.12,313.1
"2016-02-18 01:30:00",1383951,2.282,350.3,1.31,0.146,15.22,104.7071,11.32,12.36,25.96,0,110.3,13.22,12.11,312.3
"2016-02-18 01:30:30",1383952,3.338,350.8,6.693,1.411,16.59,104.7071,11.32,12.44,26.02,0,110.3,13.18,12.11,312.8
"2016-02-18 01:31:00",1383953,3.756,353.4,7.09,1.368,17.33,104.7071,11.32,12.5,25.3,0,110.3,13.18,12.11,315.4
"2016-02-18 01:31:30",1383954,4.026,354.9,7.585,1.439,17.23,104.7071,11.32,12.49,24.25,0,110.3,13.18,12.11,316.9
"2016-02-18 01:32:00",1383955,3.198,351.7,6.578,1.237,15.88,104.7071,11.32,12.44,23.95,0,110.3,13.17,12.11,313.7
"2016-02-18 01:32:30",1383956,2.26,349.3,1.138,0.105,14.41,104.7071,11.32,12.34,24.16,0,110.3,13.22,12.11,311.3
"2016-02-18 01:33:00",1383957,1.87,352.3,1.163,0.168,14.38,104.7071,11.32,12.35,24.76,0,110.3,13.22,12.11,314.3
"2016-02-18 01:33:30",1383958,1.058,357.8,3.18,0.242,14.7,104.7071,11.32,12.4,25.49,0,110.3,13.22,12.11,319.8
"2016-02-18 01:34:00",1383959,2.326,7.895,8.55,1.449,17.43,104.7071,11.32,12.48,25.85,0,110.3,13.17,12.11,329.9
"2016-02-18 01:34:30",1383960,0.877,0.446,5.224,0.58,15.25,104.7071,11.32,12.42,25.62,0,110.3,13.17,12.11,322.4
"2016-02-18 01:35:00",1383961,0.97,358.3,3.985,0.227,14.92,104.7071,11.32,12.34,25.55,0,110.3,13.22,12.11,320.3
"2016-02-18 01:35:30",1383962,1.315,355.5,2.632,0.224,15.06,104.7071,11.32,12.35,25.78,0,110.3,13.22,12.11,317.5
"2016-02-18 01:36:00",1383963,1.393,355.4,2.612,0.253,15.15,104.7071,11.32,12.36,25.84,0,110.3,13.22,12.11,317.4
"2016-02-18 01:36:30",1383964,2.305,358.7,7.071,1.286,16.72,104.7071,11.32,12.46,25.29,0,110.3,13.17,12.11,320.7
"2016-02-18 01:37:00",1383965,2.453,0.17,7.119,1.389,17.26,104.7071,11.32,12.48,25.2,0,110.2,13.18,12.11,322.2
"2016-02-18 01:37:30",1383966,1.942,0.448,7.748,1.223,16.56,104.7071,11.32,12.49,25.25,0,110.3,13.18,12.11,322.4
"2016-02-18 01:38:00",1383967,1.638,3.405,7.958,1.241,16.19,104.7071,11.32,12.42,25.31,0,110.3,13.18,12.11,325.4
"2016-02-18 01:38:30",1383968,0.74,1.607,4.45,0.153,14.31,104.7071,11.32,12.36,25.39,0,110.3,13.23,12.11,323.6
"2016-02-18 01:39:00",1383969,0.508,7.512,4.274,0.111,14.15,104.7077,11.32,12.35,25.41,0,110.3,13.23,12.12,329.5
"2016-02-18 01:39:30",1383970,0.592,7.764,3.031,0.097,14.26,104.708,11.33,12.36,25.47,0,110.3,13.23,12.12,329.8
"2016-02-18 01:40:00",1383971,0.585,6.95,3.992,0.122,14.46,104.7085,11.33,12.36,25.58,0,110.3,13.23,12.12,329.0
"2016-02-18 01:40:30",1383972,0.645,5.376,3.054,0.122,14.66,104.7085,11.33,12.35,25.64,0,110.3,13.23,12.12,327.4
"2016-02-18 01:41:00",1383973,0.707,1.421,3.421,0.131,14.96,104.7074,11.32,12.36,25.68,0,110.3,13.23,12.12,323.4
"2016-02-18 01:41:30",1383974,1.069,359.3,4.428,0.81,15.86,104.7077,11.32,12.45,25.67,0,110.3,13.18,12.12,321.3
"2016-02-18 01:42:00",1383975,2.721,358.3,7.887,1.332,17.59,104.708,11.33,12.47,25.41,0,110.3,13.18,12.12,320.3
"2016-02-18 01:42:30",1383976,1.615,350.1,3.17,0.523,15.93,104.708,11.33,12.42,25.07,0,110.3,13.18,12.12,312.1
"2016-02-18 01:43:00",1383977,1.508,344.5,2.594,0.07,15.75,104.7074,11.32,12.35,24.79,0,110.3,13.23,12.12,306.5
"2016-02-18 01:43:30",1383978,2.074,341.6,4.987,1.085,16.73,104.7043,11.32,12.35,24.55,0,110.3,13.18,12.11,303.6
"2016-02-18 01:44:00",1383979,2.663,345.4,7.182,1.362,18.13,104.7003,11.31,12.53,24.59,0,110.3,13.18,12.10,307.4
"2016-02-18 01:44:30",1383980,2.857,345.3,7.679,1.398,18.1,104.6941,11.29,12.42,24.43,0,110.3,13.18,12.08,307.3
"2016-02-18 01:45:00",1383981,2.168,339,7.053,1.265,16.62,104.6888,11.28,12.42,24.42,0,110.3,13.18,12.07,301.0
"2016-02-18 01:45:30",1383982,1.334,333.5,1.013,0.039,14.62,104.6873,11.27,12.3,24.32,0,110.3,13.23,12.06,295.5
"2016-02-18 01:46:00",1383983,1.31,331.8,0.605,0.05,14.5,104.6806,11.25,12.29,24.32,0,110.3,13.23,12.05,293.8
"2016-02-18 01:46:30",1383984,1.147,330.1,0.696,0.04,14.91,104.6741,11.24,12.3,24.3,0,110.3,13.23,12.03,292.1